Weather in Silistra

Bulgaria     44°07′03″N   27°16′23″E
temp.,
°C
wind,
m/s
gust,
m/s
humid.,
%
clouds,
%
prec.,
mm/h
press.,
hPa
HPBL,
m
21 april, wed
wed2100:00+8sw4985100 0.0 1014201
03:00+8wsw498598 0.0 1014269
06:00+6sw4988100 0.2 1015194
09:00+9w577595 0.2 1017470
12:00+13w556552 0.0 1017940
15:00+16w565627 1.1 10161471
18:00+16w46545 0.3 10161896
21:00+10ssw457133 0.3 101864
22 april, thu
thu2200:00+9sw487759 0.0 1018142
03:00+8sw49775 0.0 1019137
06:00+7wsw47790 0.0 1020112
09:00+13wsw46650 0.0 1021329
12:00+17wsw56481 0.0 10201731
15:00+19wsw46415 0.0 10192227
18:00+18wsw454975 0.0 10181250
21:00+12s336784 0.0 101922
23 april, fri
fri2300:00+11s4976100 0.0 1019174
03:00+11s4877100 0.0 1017137
06:00+10s467399 0.0 101788
09:00+14wsw2268100 0.0 1017229
12:00+13w5979100 0.2 1019587
15:00+12wsw5108117 0.3 1018443
18:00+16wsw69661 0.1 10171243
21:00+9nnw23851 0.5 102069
24 april, sat
sat2400:00+8se349197 0.0 102281
03:00+8ssw228133 0.0 102145
06:00+6sw237652 0.0 102276
09:00+9ssw226434 0.0 1023315
12:00+13s235398 0.0 10221418
15:00+15nne234996 0.1 10211464
18:00+11e6867100 0.0 1021287
21:00+9se5960100 0.0 1021260
25 april, sun
sun2500:00+7sse4873100 0.0 1021171
03:00+7se2276100 0.0 102062
06:00+7se2477100 0.0 1020133
09:00+9sse3674100 0.0 1020273
12:00+13s445636 0.0 1020870
15:00+15s2347100 0.1 10182036
18:00+14ssw2262100 0.3 1018282
21:00+11s337071 0.3 101859